Погода в Шонгуе

Россия / Мурманская область     68°44′35″N   33°09′18″E
темп.,
°C
ветер,
м/с
пор.,
м/с
влажн.,
%
обл.,
%
осадки,
мм/ч
давл.,
гПа
погр.,
м
10 мая, пн
пн1000:00−1ю37885 0.0 1007126
03:00−2ююз38905 0.0 1008167
06:00+2ююз412795 0.0 1008568
09:00+4юз511700 0.0 1009959
12:00+7юз512634 0.0 10101744
15:00+8юз5106992 0.6 10101401
18:00+7юз5974100 1.2 1011885
21:00+4юз368597 1.6 1012174
11 мая, вт
вт1100:00+2ююз239749 0.1 101357
03:00+1ююз1197100 0.1 101533
06:00+2юз1296100 0.0 101748
09:00+4ююз1385100 0.0 1018320
12:00+7ю3464100 0.0 10181106
15:00+5ююв468499 0.6 1016687
18:00+4вюв2595100 1.1 1015394
21:00+3юв1196100 1.9 101559
12 мая, ср
ср1200:00+3з1197100 0.0 101738
03:00+3сз1198100 0.0 102034
06:00+3сз1197100 0.1 102242
09:00+4с1287100 0.1 1024296
12:00+5вюв2282100 0.0 1024545
15:00+4вюв2293100 1.4 1024589
18:00+4в2495100 4.8 1025336
21:00+3всв2493100 5.6 1025273
13 мая, чт
чт1300:00+3в269497 0.0 1025271
03:00+3в2894100 0.0 1024296
06:00+3вюв2498100 3.1 1022169
09:00+5юв2392100 4.6 1021207
12:00+8ююв2488100 0.0 1019326
15:00+12зюз1383100 0.1 1017276
18:00+9с2297100 0.6 101746
21:00+9ссз1197100 0.8 101710
14 мая, пт
пт1400:00+8сз119784 0.1 101711
03:00+7ссз239898 0.1 101882
06:00+5ссв2496100 0.1 1018265
09:00+4ссв2592100 0.2 1020329
12:00+5ссв248597 0.0 1020490
15:00+7ссв2478100 0.0 1020563
18:00+7ссв4474100 0.0 1020626
21:00+5св3682100 0.0 1020429